Weather History for Crestview, FL

Change the Weather History Date:

Sunday, March 3, 2013

  Actual Average Record
Temperature  
Mean Temperature 41 °F -  
Max Temperature 52 °F 70 °F 84 °F (1997)
Min Temperature 30 °F 49 °F 18 °F (1980)
Degree Days  
Heating Degree Days 24    
Moisture  
Dew Point 23 °F    
Average Humidity 54    
Maximum Humidity 85    
Minimum Humidity 24    
Precipitation  
Precipitation 0.00 in - - ()
Sea Level Pressure  
Sea Level Pressure 30.17 in    
Wind  
Wind Speed 9 mph (NW)    
Max Wind Speed 15 mph    
Max Gust Speed 21 mph    
Visibility 10 miles    
Events      
Averages and records for this station are not official NWS values.
T = Trace of Precipitation, MM = Missing Value Source: NWS Daily Summary

Daily Weather History Graph

Daily Weather History Graph

Search for Another Location

Airport:

Trip Planner

Search our weather history database for the weather conditions in past years. The results will help you decide how hot, cold, wet, or windy it might be!

Date:

Astronomy

Mar. 03, 2013 Rise Set
Actual Time 6:09 AM CST 5:46 PM CST
Civil Twilight 5:45 AM CST 6:10 PM CST
Nautical Twilight 5:17 AM CST 6:38 PM CST
Astronomical Twilight 4:49 AM CST 7:06 PM CST
Moon No Moon Rise 9:51 AM CST (3/3)
Length of Visible Light 12h 24m
Length of Day
11h 36m
Waning Gibbous, 63% of the Moon is Illuminated
Mar 3
Waning Gibbous
Mar 4
Last Quarter
Mar 11
New
Mar 19
First Quarter
Mar 27
Full

Hourly Weather History & Observations

Time (CST) Temp. Windchill Dew Point Humidity Pressure Visibility Wind Dir Wind Speed Gust Speed Precip Events Conditions
12:53 AM 37.9 °F 30.9 °F 23.0 °F 55% 30.16 in 10.0 mi NNW 10.4 mph - N/A   Overcast
1:53 AM 37.9 °F 30.9 °F 24.1 °F 57% 30.16 in 10.0 mi WNW 10.4 mph - N/A   Overcast
2:53 AM 37.0 °F 30.4 °F 25.0 °F 62% 30.15 in 10.0 mi NW 9.2 mph - N/A   Overcast
3:53 AM 37.0 °F 31.0 °F 25.0 °F 62% 30.15 in 10.0 mi NW 8.1 mph 18.4 mph N/A   Overcast
4:53 AM 36.0 °F 28.0 °F 25.0 °F 64% 30.16 in 10.0 mi NNW 11.5 mph - N/A   Overcast
5:53 AM 36.0 °F 28.5 °F 25.0 °F 64% 30.17 in 10.0 mi NNW 10.4 mph - N/A   Overcast
6:53 AM 35.1 °F 29.3 °F 25.0 °F 67% 30.19 in 10.0 mi NW 6.9 mph - N/A   Scattered Clouds
7:53 AM 37.0 °F 31.0 °F 24.1 °F 59% 30.21 in 10.0 mi NNW 8.1 mph - N/A   Clear
8:53 AM 39.9 °F 31.8 °F 21.9 °F 49% 30.21 in 10.0 mi NNW 15.0 mph 19.6 mph N/A   Scattered Clouds
9:53 AM 41.0 °F 34.7 °F 21.0 °F 45% 30.21 in 10.0 mi North 10.4 mph 16.1 mph N/A   Scattered Clouds
10:53 AM 44.1 °F 38.6 °F 21.0 °F 40% 30.19 in 10.0 mi NW 10.4 mph 16.1 mph N/A   Clear
11:53 AM 46.0 °F 41.9 °F 19.9 °F 35% 30.17 in 10.0 mi NNW 8.1 mph 20.7 mph N/A   Clear
12:53 PM 48.0 °F - 19.9 °F 33% 30.14 in 10.0 mi NNW 9.2 mph 18.4 mph N/A   Clear
1:53 PM 48.9 °F - 19.0 °F 31% 30.13 in 10.0 mi NW 12.7 mph 18.4 mph N/A   Clear
2:53 PM 52.0 °F - 17.1 °F 25% 30.12 in 10.0 mi WNW 8.1 mph 19.6 mph N/A   Clear
3:53 PM 52.0 °F - 16.0 °F 24% 30.12 in 10.0 mi NW 8.1 mph - N/A   Clear
4:53 PM 51.1 °F - 16.0 °F 25% 30.13 in 10.0 mi NW 12.7 mph 19.6 mph N/A   Clear
5:53 PM 46.0 °F 43.9 °F 19.0 °F 34% 30.15 in 10.0 mi NW 4.6 mph - N/A   Clear
6:53 PM 41.0 °F - 26.1 °F 55% 30.17 in 10.0 mi Calm Calm - N/A   Clear
7:53 PM 36.0 °F - 27.0 °F 70% 30.19 in 10.0 mi Calm Calm - N/A   Clear
8:53 PM 33.1 °F - 27.0 °F 78% 30.20 in 10.0 mi Calm Calm - N/A   Clear
9:53 PM 30.9 °F - 26.1 °F 82% 30.21 in 10.0 mi Calm Calm - N/A   Clear
10:53 PM 30.0 °F - 26.1 °F 85% 30.20 in 10.0 mi Calm Calm - N/A   Clear
11:53 PM 30.0 °F - 26.1 °F 85% 30.19 in 10.0 mi Calm Calm - N/A   Clear